This is the latest recevied weather packets stored in our database for station/object WB4ZUT. If no packets are shown the sender has not sent any weather packets the latest 10 day(s).
| Time | Temp. | Humidity | Pressure | Rain* | Wind** | Luminosity | Snow |
|---|---|---|---|---|---|---|---|
| 1778109042 | 16.11° C | 60% | 1014.7 hPa | 0 mm | - | 110 W/m² | - |
| 1778108738 | 16.67° C | 60% | 1014.6 hPa | 0 mm | - | 206 W/m² | - |
| 1778108436 | 16.67° C | 60% | 1014.4 hPa | 0 mm | - | 216 W/m² | - |
| 1778108132 | 16.67° C | 61% | 1014.5 hPa | 0 mm | - | 229 W/m² | - |
| 1778107829 | 16.11° C | 62% | 1014.5 hPa | 0 mm | - | 287 W/m² | - |
| 1778107526 | 16.11° C | 61% | 1014.7 hPa | 0 mm | - | 217 W/m² | - |
| 1778107223 | 16.11° C | 61% | 1014.9 hPa | 0 mm | - | 225 W/m² | - |
| 1778106918 | 16.11° C | 59% | 1014.8 hPa | 0 mm | - | 272 W/m² | - |
| 1778106615 | 16.67° C | 59% | 1014.8 hPa | 0 mm | - | 238 W/m² | - |
| 1778106312 | 16.67° C | 58% | 1014.8 hPa | 0 mm | - | 250 W/m² | - |
| 1778106008 | 16.11° C | 58% | 1014.7 hPa | 0 mm | - | 394 W/m² | - |
| 1778105706 | 16.11° C | 58% | 1014.8 hPa | 0 mm | - | 211 W/m² | - |
| 1778105403 | 15.56° C | 58% | 1014.8 hPa | 0 mm | - | 184 W/m² | - |
| 1778105098 | 16.11° C | 58% | 1014.7 hPa | 0 mm | - | 180 W/m² | - |
| 1778104795 | 16.11° C | 59% | 1014.5 hPa | 0 mm | - | 203 W/m² | - |
| 1778104491 | 16.11° C | 58% | 1014.7 hPa | 0 mm | - | 208 W/m² | - |
| 1778104187 | 16.67° C | 58% | 1014.4 hPa | 0 mm | - | 225 W/m² | - |
| 1778103884 | 16.11° C | 60% | 1014.5 hPa | 0 mm | - | 304 W/m² | - |
| 1778103582 | 16.67° C | 58% | 1014.2 hPa | 0 mm | - | 242 W/m² | - |
| 1778103280 | 16.67° C | 61% | 1014.2 hPa | 0 mm | - | 276 W/m² | - |
| 1778102977 | 16.67° C | 58% | 1014.3 hPa | 0 mm | - | 339 W/m² | - |
| 1778102673 | 16.67° C | 59% | 1014.6 hPa | 0 mm | - | 265 W/m² | - |
| 1778102372 | 16.67° C | 58% | 1014.6 hPa | 0 mm | - | 290 W/m² | - |
| 1778102069 | 17.22° C | 57% | 1014.4 hPa | 0 mm | - | 399 W/m² | - |
| 1778101766 | 17.22° C | 59% | 1014.5 hPa | 0 mm | - | 437 W/m² | - |
* Rain latest hour (hover to see other rain measurements)
** Current wind speed in m/s (hover to see current wind gust speed)